�������l�o���
Date,Time,MP-1(��Sv/h),MP-2(��Sv/h),MP-3(��Sv/h),MP-4(��Sv/h),MP-5(��Sv/h),MP-6(��Sv/h),MP-7(��Sv/h),����,����(m/s),���J
2017/04/30,00:00,0.376,0.229,0.390,0.360,0.325,0.190,0.163,�k,4.7,��
2017/04/30,00:10,0.375,0.230,0.391,0.358,0.325,0.189,0.162,�k�k��,5.3,��
2017/04/30,00:20,0.375,0.230,0.389,0.358,0.326,0.189,0.162,�k�k��,5.3,��
2017/04/30,00:30,0.377,0.230,0.391,0.361,0.325,0.190,0.163,�k,6.2,��
2017/04/30,00:40,0.373,0.230,0.388,0.359,0.325,0.190,0.163,�k��,5.6,��
2017/04/30,00:50,0.377,0.229,0.389,0.360,0.326,0.189,0.161,�k�k��,5.0,��
2017/04/30,01:00,0.377,0.229,0.390,0.358,0.325,0.190,0.164,�k�k��,5.9,��
2017/04/30,01:10,0.376,0.228,0.389,0.360,0.327,0.191,0.161,�k�k��,4.5,��
2017/04/30,01:20,0.378,0.228,0.389,0.359,0.326,0.189,0.162,�k��,5.6,��
2017/04/30,01:30,0.376,0.229,0.391,0.358,0.326,0.190,0.163,�k��,4.0,��
2017/04/30,01:40,0.377,0.231,0.388,0.360,0.326,0.189,0.162,�k��,4.2,��
2017/04/30,01:50,0.376,0.229,0.389,0.359,0.325,0.190,0.163,�k��,3.6,��
2017/04/30,02:00,0.376,0.228,0.390,0.358,0.327,0.190,0.162,�k�k��,2.8,��
2017/04/30,02:10,0.377,0.229,0.390,0.359,0.326,0.190,0.163,�k��,2.3,��
2017/04/30,02:20,0.377,0.230,0.392,0.359,0.325,0.189,0.164,�k�k��,2.7,��
2017/04/30,02:30,0.377,0.229,0.390,0.359,0.328,0.190,0.163,���k��,3.9,��
2017/04/30,02:40,0.376,0.230,0.389,0.361,0.325,0.189,0.161,�k��,2.3,��
2017/04/30,02:50,0.377,0.230,0.390,0.360,0.326,0.190,0.163,�k��,1.8,��
2017/04/30,03:00,0.377,0.230,0.388,0.361,0.326,0.190,0.162,�k��,2.0,��
2017/04/30,03:10,0.375,0.230,0.390,0.360,0.325,0.190,0.163,�k,2.0,��
2017/04/30,03:20,0.377,0.229,0.391,0.358,0.327,0.189,0.162,�k,4.2,��
2017/04/30,03:30,0.378,0.228,0.387,0.359,0.328,0.190,0.163,�k,3.4,��
2017/04/30,03:40,0.376,0.228,0.389,0.358,0.324,0.190,0.163,�k�k��,1.7,��
2017/04/30,03:50,0.376,0.230,0.391,0.359,0.326,0.190,0.163,-,CALM,��
2017/04/30,04:00,0.377,0.229,0.389,0.361,0.326,0.190,0.162,��,2.6,��
2017/04/30,04:10,0.376,0.230,0.389,0.360,0.324,0.190,0.162,��,2.1,��
2017/04/30,04:20,0.377,0.229,0.391,0.361,0.328,0.190,0.163,��쓌,2.9,��
2017/04/30,04:30,0.376,0.229,0.389,0.361,0.327,0.191,0.163,���쓌,2.9,��
2017/04/30,04:40,0.376,0.229,0.391,0.360,0.326,0.189,0.162,�쓌,2.3,��
2017/04/30,04:50,0.376,0.229,0.390,0.360,0.327,0.189,0.163,�쓌,2.0,��
2017/04/30,05:00,0.377,0.231,0.389,0.361,0.325,0.191,0.164,�쓌,1.7,��
2017/04/30,05:10,0.376,0.230,0.391,0.359,0.326,0.191,0.162,���쓌,1.6,��
2017/04/30,05:20,0.377,0.230,0.391,0.359,0.326,0.190,0.163,�쓌,2.2,��
2017/04/30,05:30,0.376,0.230,0.392,0.361,0.327,0.191,0.163,�쓌,2.3,��
2017/04/30,05:40,0.375,0.230,0.390,0.360,0.326,0.191,0.163,�쓌,2.0,��
2017/04/30,05:50,0.378,0.230,0.391,0.359,0.326,0.190,0.162,�쓌,2.3,��
2017/04/30,06:00,0.377,0.229,0.390,0.359,0.326,0.190,0.162,�쓌,1.9,��
2017/04/30,06:10,0.375,0.229,0.390,0.360,0.326,0.189,0.162,���쓌,1.2,��
2017/04/30,06:20,0.378,0.229,0.392,0.359,0.327,0.189,0.161,�쓌,2.0,��
2017/04/30,06:30,0.375,0.230,0.390,0.360,0.326,0.190,0.162,��쓌,1.4,��
2017/04/30,06:40,0.377,0.229,0.390,0.359,0.326,0.190,0.162,�쓌,2.4,��
2017/04/30,06:50,0.377,0.231,0.390,0.358,0.326,0.190,0.163,�쓌,2.1,��
2017/04/30,07:00,0.375,0.228,0.387,0.359,0.326,0.190,0.161,��쓌,2.3,��
2017/04/30,07:10,0.378,0.229,0.390,0.357,0.326,0.190,0.162,��쓌,1.7,��
2017/04/30,07:20,0.374,0.228,0.386,0.359,0.325,0.190,0.163,���쐼,0.8,��
2017/04/30,07:30,0.375,0.228,0.390,0.358,0.327,0.190,0.162,�k,0.7,��
2017/04/30,07:40,0.375,0.227,0.387,0.356,0.325,0.191,0.163,-,CALM,��
2017/04/30,07:50,0.378,0.230,0.390,0.360,0.327,0.190,0.162,��쐼,1.1,��
2017/04/30,08:00,0.374,0.228,0.388,0.357,0.323,0.190,0.161,�쓌,1.2,��
2017/04/30,08:10,0.375,0.230,0.393,0.358,0.327,0.189,0.162,��쓌,2.8,��
2017/04/30,08:20,0.373,0.228,0.390,0.360,0.323,0.190,0.162,��쓌,4.2,��
2017/04/30,08:30,0.377,0.229,0.392,0.355,0.326,0.190,0.164,��,4.7,��
2017/04/30,08:40,0.374,0.228,0.390,0.360,0.325,0.191,0.162,��,5.8,��
2017/04/30,08:50,0.374,0.229,0.393,0.360,0.326,0.189,0.162,��,9.1,��
2017/04/30,09:00,0.378,0.230,0.392,0.359,0.327,0.191,0.163,��,8.8,��
2017/04/30,09:10,0.374,0.229,0.392,0.361,0.325,0.191,0.162,��,9.0,��
2017/04/30,09:20,0.374,0.231,0.391,0.360,0.328,0.190,0.163,��,10.3,��
2017/04/30,09:30,0.376,0.229,0.391,0.358,0.325,0.191,0.162,��,11.2,��
2017/04/30,09:40,0.371,0.228,0.390,0.360,0.325,0.189,0.163,��,12.6,��
2017/04/30,09:50,0.375,0.230,0.392,0.361,0.329,0.191,0.163,��,12.3,��
2017/04/30,10:00,0.379,0.230,0.392,0.359,0.325,0.190,0.164,��,12.3,��
2017/04/30,10:10,0.375,0.229,0.392,0.361,0.328,0.190,0.163,��,13.3,��
2017/04/30,10:20,0.373,0.230,0.389,0.363,0.328,0.191,0.163,��,13.3,��
2017/04/30,10:30,0.378,0.230,0.388,0.358,0.325,0.191,0.163,��,13.2,��
2017/04/30,10:40,0.377,0.229,0.392,0.361,0.329,0.192,0.164,��,13.4,��
2017/04/30,10:50,0.374,0.231,0.389,0.364,0.327,0.192,0.165,��,14.0,��
2017/04/30,11:00,0.373,0.229,0.387,0.360,0.326,0.191,0.163,��,12.2,��
2017/04/30,11:10,0.378,0.230,0.392,0.362,0.330,0.191,0.164,��,12.6,��
2017/04/30,11:20,0.375,0.230,0.391,0.365,0.327,0.192,0.163,��,13.7,��
2017/04/30,11:30,0.373,0.229,0.389,0.361,0.325,0.191,0.163,��,13.5,��
2017/04/30,11:40,0.375,0.230,0.390,0.361,0.327,0.192,0.165,��,12.8,��
2017/04/30,11:50,0.378,0.231,0.395,0.365,0.325,0.190,0.165,��,13.6,��
2017/04/30,12:00,0.376,0.229,0.389,0.362,0.327,0.190,0.164,��,14.5,��
2017/04/30,12:10,0.377,0.231,0.389,0.361,0.328,0.192,0.165,��,13.9,��
2017/04/30,12:20,0.379,0.231,0.393,0.366,0.326,0.191,0.163,��,15.3,��
2017/04/30,12:30,0.378,0.229,0.392,0.361,0.329,0.193,0.166,��,17.3,��
2017/04/30,12:40,0.375,0.231,0.391,0.363,0.330,0.191,0.165,��,16.6,��
2017/04/30,12:50,0.380,0.231,0.392,0.364,0.326,0.192,0.163,��,16.6,��
2017/04/30,13:00,0.379,0.232,0.395,0.362,0.332,0.192,0.166,��,18.2,��
2017/04/30,13:10,0.374,0.232,0.393,0.364,0.328,0.190,0.164,��,17.0,��
2017/04/30,13:20,0.381,0.230,0.390,0.366,0.327,0.192,0.165,��,16.7,��
2017/04/30,13:30,0.379,0.232,0.393,0.363,0.330,0.191,0.165,��,17.8,��
2017/04/30,13:40,0.376,0.230,0.395,0.365,0.328,0.191,0.164,��,16.8,��
2017/04/30,13:50,0.380,0.230,0.392,0.364,0.328,0.192,0.166,��,15.1,��
2017/04/30,14:00,0.379,0.232,0.389,0.361,0.330,0.192,0.165,��,13.5,��
2017/04/30,14:10,0.375,0.231,0.395,0.366,0.325,0.190,0.166,��,14.9,��
2017/04/30,14:20,0.377,0.231,0.396,0.364,0.329,0.193,0.165,��,15.1,��
2017/04/30,14:30,0.381,0.233,0.392,0.360,0.329,0.192,0.164,��,14.8,��
2017/04/30,14:40,0.376,0.230,0.390,0.365,0.328,0.191,0.167,��,16.4,��
2017/04/30,14:50,0.379,0.231,0.393,0.365,0.329,0.192,0.164,��,16.3,��
2017/04/30,15:00,0.380,0.232,0.396,0.364,0.329,0.192,0.165,��,15.9,��
2017/04/30,15:10,0.377,0.229,0.393,0.367,0.327,0.193,0.165,��,15.7,��
2017/04/30,15:20,0.382,0.233,0.392,0.364,0.328,0.193,0.165,��,16.3,��
2017/04/30,15:30,0.378,0.231,0.396,0.367,0.330,0.190,0.165,��,15.1,��
2017/04/30,15:40,0.379,0.231,0.393,0.363,0.326,0.192,0.164,��,14.7,��
2017/04/30,15:50,0.380,0.231,0.395,0.369,0.329,0.192,0.166,��,12.3,��
2017/04/30,16:00,0.377,0.232,0.395,0.365,0.330,0.191,0.165,��쐼,13.2,��
2017/04/30,16:10,0.380,0.233,0.394,0.368,0.328,0.193,0.165,��쐼,11.8,��
2017/04/30,16:20,0.379,0.231,0.398,0.363,0.330,0.191,0.165,��쐼,12.8,��
2017/04/30,16:30,0.379,0.232,0.395,0.364,0.331,0.192,0.165,��쐼,10.0,��
2017/04/30,16:40,0.380,0.233,0.396,0.366,0.328,0.193,0.165,��쐼,10.0,��
2017/04/30,16:50,0.378,0.231,0.394,0.363,0.329,0.191,0.166,��쐼,10.3,��
2017/04/30,17:00,0.381,0.231,0.397,0.366,0.331,0.193,0.165,��쐼,12.3,��
2017/04/30,17:10,0.378,0.232,0.395,0.363,0.328,0.192,0.166,��,12.9,��
2017/04/30,17:20,0.381,0.230,0.396,0.366,0.330,0.192,0.166,��,13.2,��
2017/04/30,17:30,0.379,0.231,0.396,0.364,0.331,0.192,0.165,��쐼,13.5,��
2017/04/30,17:40,0.378,0.232,0.396,0.367,0.327,0.192,0.165,��쐼,12.5,��
2017/04/30,17:50,0.380,0.232,0.397,0.365,0.332,0.192,0.166,��쐼,11.6,��
2017/04/30,18:00,0.379,0.233,0.396,0.367,0.328,0.192,0.167,��쐼,9.5,��
2017/04/30,18:10,0.381,0.231,0.396,0.365,0.332,0.192,0.165,��,11.0,��
2017/04/30,18:20,0.379,0.231,0.397,0.368,0.330,0.192,0.166,��,11.0,��
2017/04/30,18:30,0.381,0.231,0.395,0.366,0.331,0.192,0.165,��,11.0,��
2017/04/30,18:40,0.378,0.232,0.395,0.369,0.330,0.193,0.166,��,10.8,��
2017/04/30,18:50,0.380,0.231,0.396,0.364,0.332,0.192,0.165,��,10.1,��
2017/04/30,19:00,0.379,0.232,0.398,0.368,0.329,0.193,0.164,��,11.5,��
2017/04/30,19:10,0.382,0.231,0.397,0.365,0.331,0.192,0.166,��,11.5,��
2017/04/30,19:20,0.380,0.232,0.396,0.366,0.329,0.192,0.165,��,10.4,��
2017/04/30,19:30,0.381,0.231,0.394,0.366,0.329,0.192,0.165,��,9.3,��
2017/04/30,19:40,0.380,0.231,0.397,0.367,0.331,0.192,0.166,��쐼,9.6,��
2017/04/30,19:50,0.381,0.231,0.395,0.365,0.328,0.192,0.165,��,8.6,��
2017/04/30,20:00,0.380,0.233,0.397,0.366,0.331,0.193,0.165,��,7.5,��
2017/04/30,20:10,0.379,0.232,0.396,0.368,0.328,0.193,0.166,��쐼,6.7,��
2017/04/30,20:20,0.382,0.232,0.395,0.365,0.330,0.192,0.165,��쐼,6.1,��
2017/04/30,20:30,0.378,0.233,0.398,0.366,0.329,0.193,0.165,��쐼,5.4,��
2017/04/30,20:40,0.379,0.232,0.396,0.366,0.329,0.193,0.166,��쐼,5.8,��
2017/04/30,20:50,0.380,0.231,0.398,0.367,0.330,0.192,0.166,��쐼,5.6,��
2017/04/30,21:00,0.380,0.232,0.395,0.366,0.328,0.192,0.165,�쐼,6.4,��
2017/04/30,21:10,0.380,0.232,0.395,0.365,0.329,0.192,0.166,��쐼,6.6,��
2017/04/30,21:20,0.379,0.231,0.397,0.369,0.331,0.193,0.166,��쐼,5.9,��
2017/04/30,21:30,0.380,0.232,0.396,0.365,0.332,0.193,0.166,��쐼,4.7,��
2017/04/30,21:40,0.379,0.233,0.398,0.366,0.330,0.193,0.166,��쐼,3.9,��
2017/04/30,21:50,0.381,0.231,0.396,0.366,0.328,0.193,0.165,��쐼,3.6,��
2017/04/30,22:00,0.379,0.234,0.396,0.364,0.330,0.192,0.165,��쐼,4.1,��
2017/04/30,22:10,0.379,0.232,0.397,0.366,0.329,0.191,0.166,��쐼,3.9,��
2017/04/30,22:20,0.381,0.233,0.396,0.365,0.329,0.193,0.166,��쐼,4.0,��
2017/04/30,22:30,0.379,0.232,0.397,0.366,0.329,0.192,0.165,��쐼,3.4,��
2017/04/30,22:40,0.380,0.231,0.396,0.367,0.330,0.192,0.166,��쐼,3.1,��
2017/04/30,22:50,0.380,0.232,0.395,0.365,0.332,0.192,0.165,��,2.1,��
2017/04/30,23:00,0.379,0.232,0.397,0.366,0.331,0.192,0.166,���쐼,2.8,��
2017/04/30,23:10,0.381,0.232,0.396,0.364,0.330,0.192,0.166,�쐼,2.2,��
2017/04/30,23:20,0.379,0.233,0.397,0.367,0.332,0.193,0.166,��쐼,2.4,��
2017/04/30,23:30,0.381,0.233,0.397,0.366,0.329,0.193,0.168,��쐼,5.3,��
2017/04/30,23:40,0.380,0.232,0.396,0.365,0.330,0.192,0.165,��쐼,6.0,��
2017/04/30,23:50,0.380,0.233,0.399,0.368,0.328,0.193,0.166,�쐼,3.9,��
